EB5EEV-10 Weather Reports


Display with metric or nautical units.
time (UTC)temp
F
wind
direction
speed
MPH
gust
MPH
rain 1hr
in
rain 24hr
in
rain mn
in
humidity
%
barometer
mb
20260506194517 0 0 0.0 0.0 0.00 0.00 0.00 100 1007.8
20260506192815 0 0 0.0 0.0 0.00 0.00 0.00 100 1007.7
20260506190955 0 0 0.0 0.0 0.00 0.00 0.00 100 1007.6
20260506185255 0 0 0.0 0.0 0.00 0.00 0.00 100 1007.6
20260506183507 0 0 0.0 0.0 0.00 0.00 0.00 100 1007.6
20260506181630 0 0 0.0 0.0 0.00 0.00 0.00 100 1007.5
20260506174157 0 0 0.0 0.0 0.00 0.00 0.00 100 1007.5
20260506172315 0 0 0.0 0.0 0.00 0.00 0.00 100 1007.6
20260506170602 0 0 0.0 0.0 0.00 0.00 0.00 100 1007.5
20260506155332 0 0 0.0 0.0 0.00 0.00 0.00 100 1007.7
20260506153557 68 0 0.0 0.0 0.00 0.00 0.00 6 1007.5
20260506144242 68 326 1.0 6.0 0.00 0.00 0.00 6 1007.8
20260506142323 68 318 3.0 3.0 0.00 0.00 0.00 6 1007.9
20260506140544 68 290 2.0 6.0 0.00 0.00 0.00 6 1008.1
20260506134752 67 273 1.0 2.0 0.00 0.00 0.00 6 1008.3
20260506133106 69 293 1.0 4.0 0.00 0.00 0.00 6 1008.2
20260506131322 68 316 1.0 3.0 0.00 0.00 0.00 6 1008.3
20260506125422 0 0 0.0 0.0 0.00 0.00 0.00 100 1008.5
20260506123702 0 0 0.0 0.0 0.00 0.00 0.00 100 1008.5
20260506120152 66 185 2.0 8.0 0.00 0.00 0.00 6 1009.2
20260506114322 66 185 2.0 8.0 0.00 0.00 0.00 6 1009.2
20260506104727 66 185 2.0 8.0 0.00 0.00 0.00 6 1009.2
20260506103042 68 0 0.0 1.0 0.00 0.00 0.00 6 1009.1
20260506101227 68 229 2.0 8.0 0.00 0.00 0.00 6 1009.3
20260506095407 67 165 2.0 2.0 0.00 0.00 0.00 6 1009.2
20260506093635 66 244 3.0 6.0 0.00 0.00 0.00 6 1009.2
20260506091745 67 148 1.0 4.0 0.00 0.00 0.00 6 1009.0
20260506090007 65 153 1.0 6.0 0.00 0.00 0.00 7 1008.9
20260506082337 0 0 0.0 0.0 0.00 0.00 0.00 100 1008.8
20260506080552 0 0 0.0 0.0 0.00 0.00 0.00 100 1008.7
20260506073013 0 0 0.0 0.0 0.00 0.00 0.00 100 1008.6
20260506071134 0 0 0.0 0.0 0.00 0.00 0.00 100 1008.7
20260506061803 62 0 0.0 0.0 0.00 0.00 0.00 7 1008.8
20260506050412 61 172 1.0 1.0 0.00 0.00 0.00 7 1008.1
20260506044557 62 0 0.0 2.0 0.00 0.00 0.00 8 1007.9
20260506042657 62 129 1.0 2.0 0.00 0.00 0.00 8 1007.9
20260506040827 62 0 0.0 1.0 0.00 0.00 0.00 8 1007.8
20260506035142 62 165 2.0 5.0 0.00 0.00 0.00 8 1007.9
20260506033357 63 0 0.0 1.0 0.00 0.00 0.00 8 1007.9
20260506031552 63 0 0.0 1.0 0.00 0.00 0.00 8 1007.8
20260506025847 63 0 0.0 0.0 0.00 0.00 0.00 8 1007.9
20260506024132 63 133 2.0 2.0 0.00 0.00 0.00 8 1007.9
20260506022452 63 130 1.0 2.0 0.00 0.00 0.00 8 1008.0
20260506020750 64 0 0.0 1.0 0.00 0.00 0.00 8 1008.0
20260506015114 64 0 0.0 2.0 0.00 0.00 0.00 8 1007.9
20260506013215 64 0 0.0 1.0 0.00 0.00 0.00 8 1008.0
20260506011547 64 124 1.0 2.0 0.00 0.00 0.00 8 1008.1
20260506005909 64 152 1.0 2.0 0.00 0.00 0.00 7 1008.3
20260506004238 64 127 1.0 2.0 0.00 0.00 0.00 8 1008.4
20260506002508 64 146 1.0 2.0 0.00 0.00 0.00 8 1008.5
20260506000634 64 163 2.0 2.0 0.00 0.00 0.00 8 1008.5
20260505234837 64 157 2.0 4.0 0.00 0.00 0.00 8 1008.5
20260505233113 64 116 9.0 9.0 0.00 0.00 0.00 8 1008.4
20260505231312 64 128 3.0 6.0 0.00 0.00 0.00 8 1008.4
20260505225523 64 133 6.0 13.0 0.00 0.00 0.00 8 1008.3
20260505223839 65 155 4.0 11.0 0.00 0.00 0.00 8 1008.0
20260505221944 65 131 4.0 10.0 0.00 0.00 0.00 8 1007.7
20260505220154 66 113 7.0 10.0 0.00 0.00 0.00 8 1007.7
20260505214258 69 121 6.0 9.0 0.00 0.00 0.00 5 1006.9
20260505212453 70 97 2.0 4.0 0.00 0.00 0.00 5 1006.8
20260505210644 70 153 3.0 7.0 0.00 0.00 0.00 4 1006.7
20260505204742 70 143 2.0 4.0 0.00 0.00 0.00 4 1006.6
20260505202926 71 136 2.0 3.0 0.00 0.00 0.00 4 1006.5
20260505201255 71 0 0.0 1.0 0.00 0.00 0.00 5 1006.3
20260505195437 71 0 0.0 1.0 0.00 0.00 0.00 5 1006.1